Location: Gorlice
(49.6633°N, 21.1693°E)
Time: 11:21:44
(UTC+01:00)

ISS - Pass Details

Date: 23 January 2019
Orbit: 403 x 411 km, 51.6° (Epoch: 18 February)

Event Time Altitude Azimuth Distance (km) Brightness Sun altitude
Rises 18:34:46 0° 223° (SW) 2,326 0.7 -22.3°
Reaches altitude 10° 18:36:56 10° 214° (SW) 1,471 -0.5 -22.6°
Enters shadow 18:38:23 21° 198° (SSW) 975 -1.7 -22.9°
